Voltar ao catálogo

PELICAN-4 300B

AtivoComunicaçõesSSO
NORAD 65316·PAYLOAD·🇺🇸 United States

Lançado Aug 26, 2025 de Vandenberg Space Force Base

Loading…

Próximas Passagens (próximas 24 horas)

TLE

AtualizadoSource: CelesTrak SupGP

Época: Sep 14, 2026, 20:44 UTC

1 65316C 25188B   26257.86442130 -.00003235  00000+0 -78565-4 0  2571
2 65316  97.1935 332.7931 0002674 110.0968 125.6373 15.41061437    19

Acompanhe PELICAN-4 300B em tempo real com AllMySat

Download on the App Store